Location: Burbank
(38.7788°N, 114.0429°W)
Time: 22:28:59
(UTC+00:00)

Transit 2A - Pass Details

Date: 18 May 2026
Orbit: 595 x 949 km, 66.7° (Epoch: 5 June)

Event Time Altitude Azimuth Distance (km) Brightness Sun altitude
Rises 07:14:32 0° 335° (NNW) 3,140 10.2 -31.5°
Reaches altitude 10° 07:17:04 10° 341° (NNW) 2,159 9.2 -31.5°
Enters shadow 07:20:20 36° 7° (N) 1,044 7.1 -31.6°
Maximum altitude 07:21:47 50° 57° (ENE) 834 - -31.6°
Drops below altitude 10° 07:26:06 10° 133° (SE) 1,982 - -31.6°
Sets 07:28:20 0° 139° (SE) 2,855 - -31.6°
